Temp
73 65 62 68 72 74 74 73 73 79 85 80 77 78 82 87 88 86 87 87 88 87 92 94 91 91 91 91 90 90 85 83 83 81 79 79 78 79 80 82 81 79 79 78
67 61 70 75 76 73 72 69 71 78 83 80 78 76 82 85 85 87 88 88 89 89 90 92 91 89 87 88 87 86 86 84 83 82 81 81 79 79 80 78 78 79 78 77
62 67 74 73 72 70 71 69 70 71 78 81 76 72 76 83 86 88 89 91 91 89 88 90 91 87 84 83 83 85 85 83 83 83 81 80 79 79 77 77 78 79 77 75
65 73 72 70 68 72 64 76 74 72 69 62 76 60 73 80 83 87 88 87 87 89 90 90 90 87 84 83 84 84 83 82 82 82 80 78 78 75 77 77 77 74 74 73
62 66 67 67 70 73 68 77 73 72 68 65 67 62 68 79 77 82 85 85 87 88 89 89 89 88 87 80 78 79 79 80 80 80 79 78 76 73 72 71 70 70 70 70
67 76 73 72 75 76 77 72 71 70 66 54 63 63 64 72 77 83 87 88 88 88 90 91 87 84 82 77 74 76 78 78 78 79 76 73 71 71 71 68 66 66 67 67
64 67 74 76 69 74 72 65 53 51 50 50 66 63 67 77 83 84 85 87 88 88 88 85 81 80 79 72 72 73 76 76 76 74 73 72 71 71 72 68 67 64 63 63
54 52 67 74 70 66 67 65 53 43 47 55 68 59 69 82 87 87 87 87 87 86 83 84 82 81 78 72 71 70 70 69 70 71 69 70 69 68 68 67 64 63 63 63
55 56 72 72 75 73 65 60 69 58 60 54 63 71 80 81 82 81 81 83 82 83 80 82 83 80 75 70 68 69 69 67 67 67 69 68 67 66 66 65 65 64 64 64
61 54 68 72 74 73 67 73 56 58 43 42 56 61 65 74 76 79 79 79 81 83 82 82 82 75 74 69 67 66 66 65 64 65 65 65 65 65 65 64 63 63 62 63
61 57 60 69 64 63 62 59 62 63 57 46 45 56 74 74 77 77 79 80 81 82 82 82 82 76 72 67 66 64 64 64 63 63 63 63 63 64 64 64 63 63 63 65
63 57 49 59 70 73 69 61 61 52 51 56 55 56 78 77 79 80 81 82 83 83 83 83 82 76 68 66 65 63 62 61 62 63 64 63 64 64 64 64 65 65 65 65
63 52 43 49 59 68 63 64 64 64 61 53 48 54 76 77 77 80 79 82 83 82 82 82 81 77 70 66 64 63 62 62 63 64 65 64 64 66 65 64 64 64 63 63
62 56 49 42 51 59 57 61 64 61 50 53 55 61 69 72 74 79 80 82 81 79 80 80 79 75 75 69 65 63 63 64 65 67 67 65 65 64 63 63 63 63 63 62
54 48 54 57 59 61 59 61 61 57 59 51 57 61 67 72 74 75 79 79 80 79 78 77 77 75 74 71 67 65 65 67 69 67 66 64 64 64 63 61 61 60 59 59
56 44 51 51 59 59 57 63 63 61 61 61 63 62 73 75 77 76 78 78 78 78 79 79 77 76 74 72 69 68 66 67 68 67 64 63 62 61 60 59 59 58 57 58
40 38 44 38 55 55 45 55 62 62 64 63 56 65 72 71 73 74 76 78 78 78 78 77 77 74 72 71 69 66 64 64 63 62 62 62 61 60 58 60 59 57 56 56
38 37 38 37 47 34 54 65 65 63 66 67 67 69 72 73 74 74 77 76 74 76 76 76 76 71 67 67 64 62 63 62 61 60 61 60 59 58 56 55 54 53 54 54
45 38 33 34 37 48 55 60 59 57 56 66 67 70 72 74 73 70 78 77 75 74 72 73 72 68 64 63 62 61 60 59 59 58 56 54 53 53 53 52 51 52 51 52
48 45 35 35 33 32 50 63 68 66 47 66 68 70 70 71 59 66 72 73 70 72 71 65 65 63 61 61 61 58 56 55 52 52 51 51 51 51 44 49 49 48 50 50
39 38 34 34 35 46 60 65 70 46 50 66 70 70 68 63 67 70 69 69 69 65 65 66 63 60 60 60 58 54 51 49 47 48 47 48 49 48 47 46 47 46 46 47
41 36 34 37 34 34 65 66 55 62 67 69 69 69 67 66 66 63 67 67 65 63 63 65 61 59 59 58 56 52 48 47 47 46 46 45 45 46 46 44 45 46 45 42
36 40 40 45 43 60 67 66 71 73 68 69 70 71 69 66 66 64 63 64 63 63 63 62 58 56 56 56 54 50 47 47 46 46 45 44 45 46 48 45 44 41 43 40
49 50 40 48 57 60 64 69 71 72 69 72 73 72 69 63 58 59 63 63 61 61 61 60 55 53 51 51 52 48 48 48 46 45 45 45 44 44 45 45 44 41 39 38
46 52 47 49 57 62 65 68 68 69 70 72 73 72 71 68 64 63 63 63 62 61 60 59 55 51 49 50 50 51 50 51 49 48 48 47 45 44 42 43 43 41 43 41
48 44 43 43 59 56 59 64 67 67 67 69 69 67 68 69 64 64 63 63 62 59 59 55 52 49 48 50 50 51 52 52 49 46 44 43 42 42 41 40 38 40 39 39
MSLP
1006.97 1006.86 1005.05 1004.79 1004.42 1003.64 1002.91 1001.64 1000.40 999.52 999.25 999.37 999.87 1000.04 999.91 999.67 999.50 999.59 999.84 999.95 1000.17 1000.52 1000.66 1000.51 1000.71 1001.10 1001.68 1002.08 1002.76 1003.53 1004.48 1005.43 1006.13 1007.04 1007.90 1008.74 1009.08 1009.46 1009.71 1010.07 1010.15 1010.81 1011.39 1012.13
1006.57 1004.74 1004.64 1004.49 1003.87 1003.29 1002.83 1001.80 1000.49 999.69 999.17 999.52 999.60 999.59 999.67 999.50 999.14 998.98 998.90 998.96 999.11 999.52 1000.06 1000.17 1000.36 1000.77 1001.23 1001.83 1002.70 1003.62 1004.22 1004.97 1005.87 1006.56 1007.08 1007.84 1008.57 1009.04 1009.31 1009.68 1010.01 1010.22 1010.74 1011.47
1004.73 1003.83 1004.51 1003.88 1003.22 1002.67 1002.00 1001.42 1001.03 1000.54 1000.16 999.62 999.81 999.39 999.23 998.95 998.49 997.90 997.82 997.99 998.33 998.77 999.32 999.60 999.80 1000.09 1000.91 1001.90 1002.75 1003.60 1004.27 1004.68 1005.14 1005.75 1006.72 1007.47 1008.15 1008.68 1009.09 1009.40 1009.74 1010.05 1010.27 1011.12
1004.14 1004.14 1003.14 1002.87 1002.45 1002.14 1001.34 1001.34 1001.31 1001.24 1001.02 1000.21 1000.27 998.72 998.43 997.68 996.78 995.97 996.58 997.23 997.56 997.99 998.56 999.02 999.16 999.67 1000.66 1001.74 1002.78 1003.71 1004.33 1004.58 1004.94 1005.33 1005.98 1006.57 1007.28 1007.93 1008.33 1008.88 1009.30 1009.88 1010.22 1011.10
1002.13 1002.83 1002.49 1001.74 1001.01 1002.03 1000.84 1001.47 1001.43 1001.53 1001.50 1001.43 1000.61 999.82 998.07 997.62 996.64 996.08 996.02 996.41 996.87 997.41 997.70 998.03 998.73 999.66 1000.78 1002.16 1003.28 1004.20 1004.55 1004.72 1004.83 1005.01 1005.58 1006.33 1007.13 1008.01 1008.62 1009.22 1009.87 1010.29 1010.75 1011.13
1001.98 1002.30 1001.91 1000.73 1001.22 1001.24 1001.72 1001.77 1001.83 1002.01 1001.87 1000.80 999.75 999.69 997.46 997.03 996.19 995.20 994.96 995.57 996.25 996.95 997.19 997.81 998.62 999.95 1001.40 1003.04 1004.12 1004.54 1004.42 1004.59 1004.66 1004.93 1005.58 1006.49 1007.33 1008.27 1009.06 1009.79 1010.21 1010.75 1010.89 1011.28
1001.36 1000.63 1000.61 1000.83 1000.76 1000.99 1001.42 1001.72 1001.69 1001.73 1001.43 999.10 1000.10 999.10 996.45 995.98 995.43 994.82 994.70 995.24 996.01 996.69 997.10 998.23 999.63 1000.92 1002.06 1003.60 1004.79 1005.02 1004.70 1004.72 1004.93 1005.26 1006.04 1006.73 1007.35 1007.90 1008.76 1009.60 1010.26 1010.92 1011.26 1011.73
1000.60 999.87 999.36 999.04 999.07 999.66 1000.33 1001.10 1000.98 1000.50 1000.19 999.03 999.05 996.40 994.87 994.87 994.09 994.20 994.62 995.22 996.08 996.76 997.61 998.51 999.68 1000.73 1002.14 1003.84 1004.82 1005.45 1005.42 1005.58 1005.87 1006.15 1006.64 1007.11 1007.40 1008.01 1008.60 1009.32 1010.23 1010.82 1011.22 1011.63
999.90 998.41 998.78 999.25 998.76 999.32 999.26 999.98 999.95 1001.12 1000.44 999.42 997.46 995.29 993.93 993.90 994.07 994.42 994.82 995.51 996.34 997.12 998.35 999.16 1000.00 1000.84 1002.43 1003.95 1004.96 1005.56 1005.75 1006.11 1006.37 1006.72 1007.11 1007.29 1007.65 1008.20 1008.64 1009.33 1010.11 1010.59 1011.01 1011.43
999.54 998.61 998.24 997.59 998.69 998.54 999.22 999.11 1000.20 1000.86 1000.67 999.52 997.39 995.59 994.04 993.79 993.86 994.05 994.54 995.20 995.98 996.95 998.11 999.09 1000.06 1001.18 1002.60 1004.07 1005.12 1005.79 1006.22 1006.66 1006.86 1007.10 1007.39 1007.66 1008.00 1008.42 1008.96 1009.56 1010.10 1010.45 1010.98 1011.41
1000.46 999.51 997.72 997.25 996.92 996.96 998.46 998.95 999.35 999.72 1000.20 999.29 997.00 995.47 994.88 994.32 993.85 993.61 994.42 995.29 996.01 996.56 997.32 998.32 999.61 1001.00 1002.58 1004.20 1005.04 1005.95 1006.59 1007.04 1007.31 1007.48 1007.70 1008.04 1008.33 1008.66 1009.19 1009.63 1009.96 1010.50 1011.00 1011.38
999.49 999.37 998.55 996.89 996.18 996.26 996.95 998.08 998.82 998.49 998.32 997.75 997.11 995.58 994.19 994.29 994.50 994.25 994.51 994.95 995.46 996.28 997.06 997.93 999.22 1000.78 1002.60 1004.00 1005.09 1005.97 1006.72 1007.18 1007.47 1007.70 1007.95 1008.26 1008.50 1008.68 1009.10 1009.55 1009.88 1010.26 1010.59 1011.08
999.09 999.39 999.24 998.18 997.03 995.82 995.64 996.77 997.62 997.50 997.79 997.51 996.71 994.56 995.72 994.29 994.33 994.43 994.68 994.89 995.17 995.88 996.85 997.82 998.97 1000.29 1001.95 1003.42 1004.87 1005.92 1006.63 1007.12 1007.41 1007.67 1007.92 1008.43 1008.69 1008.85 1009.12 1009.31 1009.62 1010.17 1010.60 1011.10
998.87 998.58 998.45 997.67 996.25 996.38 995.43 995.59 996.14 996.80 997.00 996.84 996.30 994.69 994.73 994.45 994.11 993.64 994.08 994.64 995.07 996.06 996.94 997.74 998.65 999.68 1000.83 1002.51 1004.09 1005.41 1006.24 1006.70 1006.98 1007.18 1007.51 1007.99 1008.45 1009.12 1009.55 1009.76 1009.97 1010.28 1010.78 1011.30
999.87 998.46 998.61 997.78 997.51 996.53 995.73 995.00 995.25 995.69 996.08 995.90 995.59 994.49 993.84 994.03 993.98 993.94 994.20 994.76 995.17 995.65 996.58 997.47 998.30 999.30 1000.30 1001.73 1003.32 1004.61 1005.35 1005.89 1006.21 1006.78 1007.39 1007.99 1008.56 1009.03 1009.67 1010.18 1010.54 1010.87 1011.22 1011.68
1000.03 999.85 999.36 997.68 996.90 996.52 994.87 994.16 994.28 994.92 995.29 995.13 995.01 993.80 993.70 994.14 994.25 994.08 994.10 994.38 994.89 995.30 995.87 996.65 997.74 998.92 1000.03 1001.14 1002.66 1003.81 1004.64 1005.49 1006.02 1006.62 1007.31 1007.95 1008.74 1009.51 1010.18 1010.49 1010.83 1011.27 1011.64 1011.91
1003.05 1002.45 1000.04 998.14 996.83 995.70 994.42 993.93 993.09 993.58 993.98 993.86 993.42 992.91 993.46 993.31 993.59 993.68 993.86 994.10 994.29 994.69 995.39 996.28 997.26 998.29 999.32 1000.85 1002.16 1003.51 1004.47 1005.68 1006.44 1007.09 1007.99 1008.64 1009.14 1009.82 1010.41 1010.74 1010.98 1011.26 1011.55 1011.76
1002.73 1002.69 1001.31 998.82 997.51 993.79 992.93 993.33 993.17 992.80 992.84 993.38 993.32 991.99 992.08 992.34 992.67 993.20 993.10 993.52 993.94 994.50 995.29 996.01 996.80 997.90 999.50 1001.15 1002.83 1004.23 1004.95 1005.90 1006.74 1007.38 1008.12 1008.93 1009.46 1010.01 1010.40 1010.75 1011.27 1011.69 1011.88 1012.12
1001.84 1002.65 1001.29 999.02 996.38 994.46 993.11 992.61 992.81 992.40 991.52 991.96 991.71 991.57 991.68 991.75 992.31 992.51 992.19 992.99 993.48 994.31 995.03 995.57 996.19 997.79 999.54 1000.99 1002.68 1004.01 1004.95 1005.98 1006.79 1007.64 1008.45 1009.29 1009.82 1010.30 1010.85 1011.31 1011.65 1012.03 1012.18 1012.34
999.28 1000.39 1001.30 999.00 995.45 992.90 992.19 991.37 991.93 992.03 990.89 991.31 991.05 990.37 990.32 991.31 992.04 991.14 992.26 992.62 993.38 994.15 994.70 995.57 996.85 998.43 999.75 1000.98 1002.37 1003.92 1005.09 1006.19 1007.25 1008.09 1008.91 1009.66 1010.17 1010.54 1010.99 1011.47 1011.83 1012.18 1012.49 1012.82
997.38 998.33 997.75 996.49 994.11 992.09 990.87 990.69 990.37 990.17 989.44 989.34 989.79 989.83 990.11 990.70 991.18 991.73 992.28 992.80 993.59 994.38 995.28 996.39 997.94 999.02 1000.24 1001.49 1002.72 1004.41 1005.65 1006.85 1007.77 1008.65 1009.40 1009.94 1010.34 1010.67 1011.04 1011.61 1012.22 1012.41 1012.71 1012.86
995.22 996.45 995.54 995.14 993.26 991.55 989.93 988.80 987.94 987.29 988.19 988.40 988.88 989.25 990.19 990.89 991.63 992.18 992.58 993.29 994.40 995.28 996.25 997.18 998.58 999.79 1000.88 1002.07 1003.31 1004.91 1006.31 1007.63 1008.40 1009.25 1009.89 1010.34 1010.58 1011.11 1011.20 1011.70 1012.40 1012.47 1012.51 1012.67
994.28 994.32 993.65 991.54 989.33 987.85 987.90 988.02 987.72 987.39 987.19 987.55 987.96 988.40 989.74 991.05 991.85 992.58 993.27 993.99 995.24 996.23 997.12 998.25 999.51 1000.68 1001.88 1002.96 1004.07 1005.53 1006.93 1008.00 1009.05 1009.72 1010.09 1010.33 1010.69 1010.98 1011.17 1011.55 1011.96 1012.20 1012.34 1012.49
990.87 992.23 993.30 990.42 988.34 988.49 987.51 987.65 987.30 987.36 987.55 987.88 988.16 988.77 989.83 991.05 992.08 993.01 993.79 994.70 995.79 996.94 997.85 999.01 1000.51 1001.84 1002.98 1003.94 1004.82 1006.03 1007.09 1008.17 1008.97 1009.50 1009.83 1010.08 1010.54 1011.05 1011.31 1011.52 1011.78 1011.98 1012.09 1012.28
991.61 991.05 990.17 989.34 988.32 987.48 987.74 987.83 987.39 987.56 987.74 988.13 988.43 988.99 989.57 990.79 992.22 993.15 994.02 994.92 996.12 997.24 998.44 999.49 1000.76 1002.41 1003.90 1004.77 1005.50 1006.29 1007.00 1007.70 1008.36 1009.07 1009.68 1010.13 1010.47 1010.79 1011.09 1011.33 1011.54 1011.71 1011.77 1011.93
990.52 990.47 989.34 987.34 987.26 988.05 987.86 987.86 987.62 987.89 988.37 988.68 988.92 989.52 990.34 990.92 992.19 993.30 994.22 995.16 996.29 997.58 998.80 1000.06 1001.50 1003.13 1004.35 1005.06 1005.70 1006.33 1006.95 1007.56 1008.28 1009.06 1009.73 1010.15 1010.46 1010.78 1011.05 1011.23 1011.28 1011.31 1011.32 1011.48
Wind_Speed
19 15 19 23 22 20 20 22 22 18 23 18 15 16 15 15 15 16 17 15 14 14 13 11 8 9 9 5 6 3 11 12 12 12 12 11 11 9 9 10 11 10 12 13
19 25 22 21 22 23 23 24 23 18 16 6 12 16 17 16 16 18 18 16 15 14 14 14 11 10 8 7 7 4 2 9 11 10 10 9 10 9 9 6 8 8 13 13
25 22 22 24 22 23 23 22 20 20 17 19 11 20 18 19 22 24 21 15 14 13 13 14 12 10 10 9 7 5 4 7 9 12 9 8 7 8 8 9 9 9 13 13
27 24 26 26 28 24 23 20 18 19 17 15 16 16 18 13 17 17 20 14 11 12 13 17 10 9 10 8 7 2 3 6 7 13 12 13 10 10 8 7 7 8 11 11
29 28 27 29 24 26 23 18 18 17 17 18 22 14 12 16 17 18 16 15 16 13 11 10 8 9 9 10 7 1 6 6 7 8 8 9 8 4 3 4 5 5 7 9
29 27 29 29 26 19 20 22 18 16 13 16 20 18 15 15 18 16 9 7 6 8 9 8 9 11 11 10 4 4 5 7 8 7 8 9 9 7 5 5 4 3 3 4
29 31 27 27 28 27 25 17 12 15 14 19 15 18 17 12 20 22 10 10 7 8 6 13 14 8 9 9 4 2 5 2 3 8 8 10 8 9 13 10 7 6 5 4
23 24 32 24 32 23 26 20 13 18 14 17 21 25 18 19 15 11 7 6 2 5 7 7 11 9 11 10 6 4 1 2 2 5 5 5 6 4 6 7 6 5 5 6
25 33 22 30 27 25 25 26 25 20 21 15 14 21 18 20 8 7 9 10 8 6 8 5 4 8 12 10 7 6 6 5 3 3 5 6 6 7 7 9 8 6 6 6
21 21 27 27 29 24 26 18 21 15 21 24 16 19 10 9 13 14 12 10 9 8 13 10 7 13 11 10 8 6 6 6 5 6 6 6 7 8 7 8 8 9 7 8
29 23 19 28 28 32 18 22 19 16 15 17 21 16 11 17 9 12 13 10 9 10 8 9 9 14 14 11 9 7 5 7 6 5 7 8 8 9 8 8 8 8 9 9
32 11 23 25 30 31 26 26 25 12 29 24 17 14 7 3 5 5 9 10 11 9 10 8 10 15 14 11 9 8 7 6 6 7 7 7 8 8 9 9 9 9 9 8
23 22 23 20 21 24 30 28 29 26 18 21 16 20 13 21 14 14 8 8 8 7 9 8 10 13 15 13 11 9 8 7 7 8 8 8 7 9 8 8 8 8 7 7
23 26 28 23 24 21 28 31 27 24 17 17 19 25 16 14 10 7 12 9 10 9 6 7 6 13 11 16 15 12 10 10 11 10 10 9 8 8 8 7 7 7 7 7
24 27 31 31 35 24 34 26 29 26 26 21 22 29 26 17 11 10 11 9 10 12 13 9 6 10 12 11 16 15 13 12 11 11 10 9 8 9 8 7 7 6 7 6
18 27 25 31 31 36 31 32 29 29 26 28 26 30 24 18 15 13 15 16 17 16 15 11 9 7 13 13 12 12 12 10 9 11 10 10 9 9 7 7 8 7 6 6
8 5 19 25 29 29 39 25 28 27 28 24 28 31 21 24 25 22 16 15 20 13 9 8 10 10 9 13 11 13 13 7 5 7 9 9 10 10 9 7 6 6 6 6
10 14 9 17 25 38 16 32 29 23 26 29 27 33 25 25 23 10 11 10 8 9 11 11 9 11 13 12 12 11 11 10 7 10 10 8 7 7 7 7 6 4 3 3
20 17 8 12 23 19 29 23 25 28 34 30 29 32 28 29 16 14 19 11 8 7 7 8 8 17 16 16 14 12 11 10 10 10 8 8 7 7 6 5 4 5 5 4
21 20 18 14 23 31 24 24 28 23 27 33 27 25 27 20 14 18 6 4 2 2 0 8 16 16 16 16 13 14 11 11 10 11 9 7 6 7 6 6 5 3 1 1
11 14 23 18 14 15 19 27 26 34 20 31 30 21 11 8 7 1 3 4 6 9 12 14 15 15 15 15 15 12 10 10 9 8 7 7 6 7 6 5 2 2 1 3
17 16 14 18 17 13 24 26 34 18 18 11 22 20 14 2 4 6 4 8 12 12 13 14 14 13 14 13 14 13 12 10 10 8 7 5 5 3 3 4 6 6 5 4
20 16 14 18 20 13 10 21 17 9 6 12 10 11 9 7 5 7 6 9 12 13 13 12 13 14 12 12 13 13 11 10 8 8 7 6 5 6 6 5 3 1 3 3
22 20 19 18 18 25 23 13 15 11 7 7 5 5 7 4 7 6 6 9 11 11 12 13 14 13 11 10 10 12 13 11 9 7 6 6 5 3 5 3 3 3 2 2
10 15 26 22 15 16 19 21 24 14 5 9 9 11 7 8 9 8 7 10 10 11 12 13 14 13 11 10 11 12 11 11 8 6 6 5 4 5 3 4 3 4 4 3
13 8 13 7 16 10 6 5 6 6 10 8 6 4 2 5 10 9 8 10 11 13 12 13 13 12 12 10 12 11 8 6 6 5 3 3 3 2 0 1 2 6 8 8
Wind_Direction
217 225 223 227 224 244 250 258 247 237 226 198 215 242 256 253 247 227 226 232 234 242 256 263 207 196 217 221 98 49 159 180 173 177 184 190 205 199 197 209 188 186 181 186
227 225 228 235 237 233 243 258 262 277 274 202 234 245 252 246 252 256 257 249 234 226 238 241 235 211 191 132 113 155 229 157 186 187 186 192 194 201 204 195 188 195 177 178
221 228 222 238 235 238 241 239 249 262 267 270 257 274 268 257 255 249 253 253 240 246 230 240 234 194 146 138 153 179 217 197 186 184 184 189 189 201 185 196 194 194 165 170
232 229 235 218 235 235 236 239 246 258 269 259 263 270 257 261 265 252 229 232 252 244 232 242 234 158 136 124 109 103 256 231 222 189 185 192 203 199 196 189 189 155 153 159
226 226 224 245 221 230 248 245 249 250 247 254 251 261 254 267 266 268 212 220 219 226 227 215 189 126 116 83 83 329 232 238 237 191 193 195 194 148 83 79 96 115 136 152
238 228 229 233 242 238 238 247 255 261 267 257 242 249 254 248 259 258 215 200 201 225 218 176 109 93 101 85 67 263 233 209 208 169 152 138 159 160 185 154 162 180 136 127
226 228 231 228 234 231 231 236 226 231 226 241 232 240 239 245 246 251 222 194 206 210 171 118 115 125 124 119 151 258 283 152 81 110 135 153 170 195 211 172 179 160 143 153
223 219 215 222 227 222 224 215 228 224 225 250 223 242 245 245 256 203 157 174 90 102 92 126 141 145 128 129 140 182 201 100 99 118 134 162 126 130 144 146 145 155 157 154
223 231 211 224 230 211 222 215 224 252 279 287 262 249 242 220 199 170 168 178 189 160 132 142 157 127 118 127 142 168 148 121 136 155 188 167 141 140 138 138 150 158 156 157
241 245 220 216 220 205 222 237 210 227 235 251 254 251 257 242 191 187 193 198 189 191 161 172 168 124 128 124 129 112 126 121 106 108 109 115 119 113 125 130 136 136 129 131
237 251 247 213 207 214 192 226 242 210 223 232 254 247 236 270 334 204 183 201 210 208 184 168 164 134 123 129 128 128 132 143 135 122 120 122 125 130 132 132 128 132 142 147
216 236 244 250 217 213 205 209 226 210 219 225 243 246 270 330 5 359 180 203 192 195 199 160 151 135 133 140 140 135 143 136 137 139 138 141 145 141 137 144 151 152 146 146
207 222 245 257 259 238 202 204 221 235 222 230 226 248 233 274 272 243 241 214 187 160 144 161 164 152 148 148 154 152 158 160 164 168 163 160 176 162 150 137 135 125 120 118
210 233 219 232 234 231 210 211 214 223 236 224 234 254 231 234 229 256 198 211 162 162 184 187 191 156 162 153 155 166 171 181 187 179 160 156 154 140 135 136 126 126 132 129
264 227 236 224 238 232 240 214 211 227 218 228 224 239 238 237 234 197 196 201 228 179 185 197 206 165 164 160 157 167 180 188 178 163 163 152 132 128 126 123 105 88 91 101
265 266 227 246 224 232 244 229 217 217 232 232 240 241 242 254 264 256 212 203 216 215 200 202 177 205 171 162 162 167 166 177 169 167 147 137 131 125 127 132 137 131 136 138
291 299 232 232 230 228 233 243 219 215 224 230 225 238 242 239 238 243 260 228 219 219 198 196 194 189 161 163 153 160 151 142 151 137 145 146 139 145 152 156 145 128 110 108
260 292 269 234 236 230 219 232 243 252 220 227 242 241 240 242 247 260 245 249 214 207 198 211 202 141 131 129 132 138 145 156 170 148 149 150 137 126 95 82 91 94 122 139
222 253 270 245 231 234 231 228 226 235 244 244 238 235 238 244 252 248 239 236 214 187 209 213 158 147 142 150 150 155 156 158 146 144 115 93 94 95 99 108 87 52 43 35
227 221 243 253 226 223 223 228 227 240 242 244 247 235 227 236 233 242 198 187 210 311 72 127 134 139 146 152 148 151 148 139 124 120 113 114 128 112 96 81 94 121 78 293
231 242 233 239 237 231 218 221 232 218 230 235 228 236 252 231 234 166 28 333 93 120 119 117 134 144 146 142 133 130 118 121 116 108 109 117 104 103 108 102 69 31 312 289
243 230 236 227 226 222 220 224 223 221 219 237 222 238 247 67 39 68 66 108 114 118 122 128 136 138 138 134 131 130 121 124 122 126 127 122 117 125 129 172 209 210 205 205
242 225 238 215 212 216 215 227 245 242 200 171 183 177 161 187 186 136 123 118 131 136 133 127 121 125 122 122 130 135 136 133 139 142 142 145 159 187 192 179 182 187 228 214
230 211 231 224 198 219 227 243 254 256 180 244 256 188 143 131 124 141 147 140 145 145 145 139 132 131 128 113 121 126 135 143 150 161 171 137 126 176 204 209 199 202 207 221
257 219 200 217 220 216 219 229 252 260 157 228 226 232 196 159 164 163 173 156 156 153 154 145 141 134 132 134 137 144 146 153 151 153 163 170 160 166 195 215 213 227 225 201
201 251 243 209 214 206 221 256 214 216 211 230 250 133 198 206 156 168 176 155 154 148 156 130 128 138 153 148 137 139 142 124 135 110 116 134 149 145 169 262 276 245 231 234